{"data":{"norad_id":69025,"epoch":"2026-05-25T03:40:43.551840Z","epoch_age_seconds":64972,"freshness":"FRESH","line1":"1 69025U 26101A   26145.15328185  .00151710  00000+0  99846-3 0  9996","line2":"2 69025  97.2849 359.8905 0001179  82.9209 277.2190 15.75226506  3011","mean_motion":15.75226506,"eccentricity":0.0001179,"inclination_deg":97.2849,"raan_deg":359.8905,"arg_perigee_deg":82.9209,"mean_anomaly_deg":277.219,"bstar":0.00099846,"rev_number":301,"period_min":91.415424671631,"perigee_km":343.19417112555,"apogee_km":344.77924789626,"semimajor_km":6722.1237095109,"source":"CELESTRAK","updated_at":"2026-05-25T13:38:22.078819Z"}}